This demonstration page uses our WeatherBlox Daily Observations layout. Learn more.

Left ArrowRight Arrow

39.29038, -76.61219

Hourly Observations for January 19, 2020

Temp ( °F °C ) Dew Point ( °F °C ) Humidity (%) Winds ( mph kmh ) Pressure ( in mb ) Visibility ( mi km ) Precip ( " mm )
12:54 am 00:54 undefined 41 5 38 3.3 89 89 undefined N/A 29.75 1008 N/A 0.00 0.00
1:54 am 01:54 undefined 43 6.1 38 3.3 82 82 undefined N/A 29.74 1007 N/A 0.00 0.00
2:54 am 02:54 undefined 43 6.1 39 3.9 86 86 undefined N/A 29.75 1007 N/A 0.00 0.00
3:54 am 03:54 undefined 43 6.1 39 3.9 86 86 undefined N/A 29.74 1007 N/A 0.00 0.00
4:54 am 04:54 undefined 42 5.6 39 3.9 89 89 undefined N/A 29.72 1006 N/A 0.04 1.02
5:54 am 05:54 undefined 42 5.6 39 3.9 89 89 undefined N/A 29.75 1008 N/A 0.01 0.25
6:54 am 06:54 undefined 41 5 37 2.8 86 86 undefined N/A 29.74 1007 N/A 0.00 0.00
7:54 am 07:54 undefined 43 6.1 28 -2.2 56 56 undefined N/A 29.77 1008 N/A 0.00 0.00
8:54 am 08:54 undefined 43 6.1 26 -3.3 51 51 undefined N/A 29.82 1010 N/A 0.00 0.00
9:54 am 09:54 undefined 44 6.7 24 -4.4 45 45 undefined N/A 29.87 1012 N/A 0.00 0.00
10:54 am 10:54 undefined 43 6.1 23 -5 45 45 undefined N/A 29.90 1013 N/A 0.00 0.00
11:54 am 11:54 undefined 41 5 22 -5.6 47 47 undefined N/A 29.87 1012 N/A 0.00 0.00
12:54 pm 12:54 undefined 39 3.9 24 -4.4 55 55 undefined N/A 29.91 1013 N/A 0.00 0.00
1:54 pm 13:54 undefined 39 3.9 21 -6.1 48 48 undefined N/A 29.91 1013 N/A 0.00 0.00
2:54 pm 14:54 undefined 38 3.3 19 -7.2 46 46 undefined N/A 29.93 1014 N/A 0.00 0.00
3:54 pm 15:54 undefined 36 2.2 14 -10 40 40 undefined N/A 29.94 1014 N/A 0.00 0.00
4:54 pm 16:54 undefined 35 1.7 15 -9.4 44 44 undefined N/A 29.99 1016 N/A 0.00 0.00
5:54 pm 17:54 undefined 33 0.6 16 -8.9 49 49 undefined N/A 30.02 1017 N/A 0.00 0.00
6:54 pm 18:54 undefined 32 0 15 -9.4 50 50 undefined N/A 30.05 1018 N/A 0.00 0.00
7:54 pm 19:54 undefined 32 0 14 -10 47 47 undefined N/A 30.08 1019 N/A 0.00 0.00
8:54 pm 20:54 undefined 30 -1.1 13 -10.6 49 49 undefined N/A 30.10 1019 N/A 0.00 0.00
9:54 pm 21:54 undefined 29 -1.7 11 -11.7 47 47 undefined N/A 30.19 1022 N/A 0.00 0.00
10:54 pm 22:54 undefined 28 -2.2 12 -11.1 51 51 undefined N/A 30.09 1019 N/A 0.00 0.00
11:54 pm 23:54 undefined 27 -2.8 11 -11.7 51 51 undefined N/A 30.15 1021 N/A 0.00 0.00

Powered by AerisWeather